Regional Weather Roundup
Issued by NWS

Home | Current Version | Previous Version | Text Only | Print | Product List | Glossary Off
Versions: 1 2 3 4 5 6 7 8 9 10 11 12 13 14 15 16 17 18 19 20 21 22 23 24 25 26 27 28 29 30 31 32 33 34 35 36 37 38 39 40 41 42 43 44 45 46 47 48 49 50

000
ASUS45 KBOU 221510
RWRCO

WEATHER ROUNDUP FOR COLORADO
NATIONAL WEATHER SERVICE DENVER/BOULDER CO
900 AM MDT TUE MAY 22 2018

NOTE: "FAIR" INDICATES FEW OR NO CLOUDS BELOW 12000 FEET WITH NO
SIGNIFICANT WEATHER AND/OR OBSTRUCTIONS TO VISIBILITY.

COZ001>005-013-030-031-221600-
...NORTHWEST COLORADO...

CITY           SKY/WX    TMP DP  RH WIND       PRES   REMARKS
CRAIG          FAIR      55  39  54 CALM      30.00F
HAYDEN         FAIR      60  37  42 E9        30.02S
MEEKER         FAIR      55  36  48 CALM      30.02S
RANGELY        FAIR      65  35  32 E6        29.95S
RABBIT EARS PA FAIR      45  30  57 SE8       30.23S
STEAMBOAT SPGS FAIR      53  37  55 CALM      30.02F
WALDEN         FAIR      50  36  57 CALM      30.13F
$$

COZ006>008-011-221600-
...WEST CENTRAL VALLEYS...

CITY           SKY/WX    TMP DP  RH WIND       PRES   REMARKS
GRAND JUNCTION FAIR      69  36  29 E17       29.93S
MONTROSE       FAIR      60  33  36 SE6       30.02S
EAGLE          FAIR      54  33  45 CALM      30.08F
RIFLE          FAIR      61  35  37 E8        29.98F
DELTA          FAIR      63  34  34 CALM      29.99S
NUCLA          FAIR      63  30  29 S3        30.04S
$$

COZ017>023-064>068-221600-
...SOUTHWEST COLORADO...

CITY           SKY/WX    TMP DP  RH WIND       PRES   REMARKS
DURANGO        CLOUDY    54  41  61 NE6       30.11S
CORTEZ         FAIR      64  43  46 SE14G26   30.03S
PAGOSA SPRINGS CLOUDY    53  38  57 CALM      30.19R
TELLURIDE      FAIR      54  32  43 SE9       30.19R
WOLF CREEK PAS CLOUDY    36  36 100 S13       30.40S
$$

COZ009-010-012-014-032>034-037-058>063-221600-
...CENTRAL COLORADO...

CITY           SKY/WX    TMP DP  RH WIND       PRES   REMARKS
ASPEN          FAIR      56  33  42 VRB5      30.07F
BUENA VISTA    FAIR      50  35  58 CALM      30.18R
COPPER MTN     FAIR      46  27  46 SE9G18    30.33S
BERTHOUD PASS  FAIR      36  27  69 SE17      30.35S
COTTONWOOD PAS FAIR      50  37  62 SE5       30.24R
GUNNISON       FAIR      49  35  58 N6        30.16F
GRANBY         FAIR      47  35  63 CALM      30.14F
KREMMLING      FAIR      54  34  47 CALM      30.12S
LEADVILLE      FAIR      43  33  68 CALM      30.21F
MONARCH PASS   FAIR      39  30  70 MISG      30.43S
SALIDA         FAIR      51  39  62 N5        30.22F
SUNLIGHT       FAIR      46  23  39 CALM      30.28R
WILKERSON PASS FAIR      43  30  61 SW3       30.33S
$$

COZ069>075-221600-
...SAN LUIS VALLEY/SANGRE DE CRISTO MOUNTAINS...

CITY           SKY/WX    TMP DP  RH WIND       PRES   REMARKS
ALAMOSA        CLOUDY    42  42 100 S5        30.21R FOG
DEL NORTE      FAIR      46  39  78 CALM      30.22R
LA VETA PASS   FAIR      45  36  70 MISG      30.37S
SAGUACHE       NOT AVBL
$$

COZ035-036-038>040-221600-
...NORTHERN COLORADO FRONT RANGE...

CITY           SKY/WX    TMP DP  RH WIND       PRES   REMARKS
DENVER INTL AP PTSUNNY   62  49  62 W9        29.99S
AURORA         PTSUNNY   62  46  56 SW7       30.01S
FRONT RANGE AP PTSUNNY   63  50  63 W3        30.01S
ERIE MUNI ARPT FAIR      64  46  53 CALM      30.04S
BOULDER MUN AP FAIR      64  45  48 E3        29.99R
CENTENNIAL     PTSUNNY   61  43  51 W6        30.02S
BROOMFIELD     PTSUNNY   64  46  52 N5        30.01F
FORT COLLINS   FAIR      63  53  70 E7        29.99S
LONGMONT       FAIR      66  47  50 CALM      30.00S
$$

COZ041-046-047-076>085-087-088-221600-
...PIKES PEAK/PALMER DIVIDE AND SOUTHERN FOOTHILLS...

CITY           SKY/WX    TMP DP  RH WIND       PRES   REMARKS
COLO. SPRINGS  PTSUNNY   62  41  46 SE3       30.06R
A. F. ACADEMY  FAIR      60  42  51 N3        30.06S
SCHRIEVER AFB  NOT AVBL
CHEYENNE MTN   FAIR      60  39  46 SE6       30.03S
ELLICOTT         N/A    N/A N/A N/A CALM      30.03S
FALCON         FAIR      62  37  38 CALM      30.09R
FORT CARSON    FAIR      62  41  45 E3        30.03R
LIMON          FAIR      56  44  64 SE6       30.03S
MONUMENT HILL  FAIR      55  43  62 W7        30.10R
CANON CITY     FAIR      66  39  37 W12G18    30.01S
WALSENBURG     FAIR      66  39  37 S6        30.05F
TRINIDAD       FAIR      65  48  54 NW6       30.03F
$$

COZ042>045-048>051-090-091-221600-
...NORTHEAST COLORADO...

CITY           SKY/WX    TMP DP  RH WIND       PRES   REMARKS
GREELEY ARPT   FAIR      63  56  78 NE7       29.98S
AKRON          FAIR      64  49  57 S10       29.98S
BURLINGTON     FAIR      67  51  56 S16       30.00S
WRAY           FAIR      63  52  67 CALM      29.98S
YUMA           FAIR      63  50  63 S8        29.97F
STERLING       FAIR      63  48  59 CALM      29.95S
HOLYOKE        FAIR      68  52  56 S6        29.97R
FORT MORGAN    FAIR      59  47  63 SE5       29.98R
$$

COZ086-089-092>099-221600-
...SOUTHEAST COLORADO...

CITY           SKY/WX    TMP DP  RH WIND       PRES   REMARKS
PUEBLO         FAIR      62  41  46 W7        29.99F
LA JUNTA       FAIR      70  47  43 SW13      29.97S
LAMAR          FAIR      73  51  46 S8        29.95S
SPRINGFIELD    NOT AVBL
$$



USA.gov is the U.S. government's official web portal to all federal, state and local government web resources and services.